SCP
-0 -0 -0 -0 -0 -0 -0 -0 -0 -0 -0 -0 -0 0 0 0 0 0 0 0 0 0 0 0 0 0 0 0 0 0 0 0 0 0 0 0 0 0 0 0 0 0 0
-0 -0 -0 -0 -0 -0 -0 -0 -0 -0 -0 -0 -0 -0 0 0 0 0 0 0 0 0 0 0 0 0 0 0 0 0 0 0 -0 -0 -0 -0 0 0 0 0 0 0 0
-0 -0 -0 -0 -0 -0 -0 -0 -0 -0 -0 -0 -0 -0 0 0 0 0 0 0 0 0 0 0 0 0 0 0 0 0 0 0 -0 -0 -0 -0 0 0 0 0 0 0 0
0 0 -0 -0 -0 -0 -0 -0 -0 -0 -0 -0 -0 -0 -0 0 0 -0 -0 -0 0 0 0 0 0 0 0 0 0 0 0 0 -0 -0 -0 0 0 0 0 0 0 0 0
0 0 0 0 0 0 -0 -0 -0 -0 -0 -0 -0 -0 -0 -0 0 -0 -0 -0 -0 -0 -0 -0 -0 -0 -0 -0 0 0 0 0 0 -0 0 0 0 0 0 0 0 0 0
0 0 0 0 0 0 0 0 -0 -0 -0 -0 -0 -0 -0 -0 0 0 -0 -0 -0 -0 -0 -0 -0 -0 -0 -0 -0 -0 -0 -0 -0 -0 -0 0 0 0 0 0 0 0 0
0 0 0 0 0 0 0 0 0 -0 -0 -0 -0 -0 -0 0 0 0 -0 -0 -0 -0 -0 -0 -0 -0 -0 -0 -0 -0 -0 -0 -0 -0 -0 -0 -0 0 0 0 0 0 0
0 0 0 0 0 0 0 0 0 0 0 0 0 0 0 0 0 0 0 -0 -0 -0 -0 -0 -0 -0 -0 -0 -0 -0 -0 -0 -0 -0 -0 -0 -0 0 0 0 0 0 0
1 1 0 0 0 0 0 0 0 0 0 0 0 0 0 0 0 0 0 0 -0 -0 -0 -0 -0 -0 -0 -0 -0 -0 -0 -0 -0 -0 -0 -0 -0 0 0 0 0 0 0
1 1 1 1 1 1 0 0 0 0 0 0 0 0 0 0 0 0 0 0 0 0 -0 -0 -0 -0 -0 -0 -0 -0 -0 -0 -0 -0 -0 0 0 0 0 0 0 0 0
1 1 1 1 1 1 1 0 0 0 0 0 0 0 0 0 0 0 0 0 0 0 0 0 0 0 0 -0 -0 -0 -0 -0 -0 -0 0 0 0 0 0 0 0 0 0
1 1 1 1 1 1 1 0 0 0 0 0 0 0 0 0 0 0 0 0 0 0 0 0 0 0 0 0 -0 -0 -0 -0 -0 0 0 0 0 0 0 0 0 0 0
1 1 1 1 1 1 1 1 1 0 0 0 0 0 0 0 0 0 0 0 0 0 0 0 0 0 0 0 0 0 0 0 0 0 0 0 0 0 0 0 0 0 0
1 1 1 1 1 1 1 1 1 1 1 0 0 0 0 0 0 0 0 0 0 0 0 0 0 0 0 0 0 -0 -0 -0 0 0 0 0 0 0 0 0 0 0 0
0 0 1 1 1 1 1 1 1 1 1 0 0 0 0 0 0 0 0 0 0 0 0 0 0 0 0 0 0 0 0 0 0 0 0 0 0 0 0 0 0 0 0
0 0 0 0 0 0 0 0 0 0 0 0 0 0 0 0 0 0 0 0 0 0 0 0 0 0 0 0 0 0 0 0 0 0 0 0 0 0 0 0 0 0 0
0 0 0 0 0 0 0 0 0 0 0 0 0 0 0 0 0 0 0 0 0 0 0 0 0 0 0 0 0 0 0 0 0 0 0 0 0 0 0 0 0 0 0
0 0 0 0 0 0 0 0 0 0 0 0 0 0 0 0 0 0 0 0 0 0 0 0 0 0 0 0 0 0 0 0 0 0 0 0 0 0 0 0 0 0 0
0 0 0 0 0 0 0 0 0 0 0 0 0 0 0 0 0 0 0 0 0 0 0 0 0 0 0 0 0 0 0 0 0 0 0 0 0 0 0 0 0 0 0
0 0 0 0 0 0 0 0 0 0 0 0 0 0 0 0 0 0 0 0 0 0 0 0 0 0 0 0 0 0 0 0 0 0 0 0 0 0 0 0 0 0 0
0 0 0 0 0 0 0 0 0 0 0 0 0 0 0 0 0 0 0 0 0 0 0 0 0 0 0 0 0 0 0 0 0 0 0 0 0 0 0 0 0 0 0
0 0 0 0 0 0 0 0 0 0 0 0 0 0 0 0 0 0 0 0 0 0 0 0 0 0 0 0 0 0 0 0 0 0 0 0 0 0 0 0 0 0 0
0 0 0 0 0 0 0 0 0 0 0 0 0 0 0 0 0 0 0 0 0 0 0 0 0 0 0 0 0 0 0 0 0 0 0 0 0 0 0 0 0 0 0
0 0 0 0 0 0 0 0 0 0 0 0 0 0 0 0 0 0 0 0 0 0 0 0 0 0 0 0 0 0 0 0 0 0 0 0 0 0 0 0 0 0 0
0 0 0 0 0 0 0 0 0 0 0 0 0 0 0 0 0 0 0 0 0 0 0 0 0 0 0 0 0 0 0 0 0 0 0 0 0 0 0 0 0 0 0
0 0 0 0 0 0 0 0 0 0 0 0 0 0 0 0 0 0 0 0 0 0 0 0 0 0 0 0 0 0 0 0 0 0 0 0 0 0 0 0 0 0 0
Wind_Speed
9 8 8 7 7 7 7 8 7 6 7 8 7 7 6 5 5 4 4 4 5 4 3 3 4 3 2 1 1 1 2 3 3 3 2 2 2 3 4 4 4 4 5
10 8 8 8 7 7 7 7 7 8 8 8 8 7 7 6 6 6 6 5 5 5 5 4 4 3 3 2 2 2 2 3 3 3 3 2 3 4 4 4 4 4 4
10 9 8 8 8 8 8 8 8 8 7 7 7 7 7 6 6 6 6 5 6 6 6 6 5 5 4 3 3 3 2 2 3 3 3 3 3 3 3 3 3 3 4
10 10 10 10 10 9 8 8 8 8 8 7 7 7 7 7 7 6 6 6 6 6 6 6 6 6 6 6 4 5 4 3 2 2 3 3 3 3 1 2 3 3 3
12 11 11 10 9 8 8 8 8 8 9 7 7 6 6 6 7 7 7 7 6 6 6 6 7 8 9 7 5 5 5 3 3 3 3 3 3 3 3 2 3 3 4
13 12 11 10 9 10 9 9 8 8 7 7 8 8 8 7 10 13 9 7 7 7 6 6 6 8 10 12 12 11 9 7 6 4 4 5 6 5 4 3 3 2 4
12 11 11 11 11 11 11 10 10 10 8 8 8 8 8 9 12 13 14 8 7 7 7 6 6 7 8 6 9 11 12 14 12 8 7 8 7 6 4 4 5 5 6
12 11 11 11 11 10 9 10 10 8 8 8 8 8 8 9 13 13 13 9 7 7 8 8 7 7 7 7 6 7 8 9 11 9 9 10 9 8 7 7 6 5 6
11 11 11 11 11 10 10 9 8 7 7 7 6 8 8 8 11 12 11 5 6 7 7 7 7 7 10 10 7 7 8 9 11 14 15 14 15 14 10 4 4 4 6
10 9 9 9 10 10 10 8 6 6 7 7 7 7 8 7 9 11 11 4 6 6 6 6 10 10 10 9 7 7 9 10 8 7 8 11 12 12 14 10 8 6 6
7 6 6 7 8 8 8 7 6 6 6 6 7 6 6 7 8 11 12 7 7 6 6 5 6 9 11 10 9 8 12 10 6 6 6 6 6 7 8 8 9 8 8
4 5 5 5 5 5 6 5 5 6 6 6 5 5 4 5 6 8 12 13 8 6 6 5 5 8 9 10 8 11 13 9 5 5 5 7 7 8 8 8 9 10 11
6 4 3 3 3 3 4 4 3 4 4 4 4 4 3 3 4 7 9 12 11 7 6 8 8 9 8 7 10 12 9 5 5 6 7 9 8 8 7 6 7 8 8
6 4 3 4 3 2 3 3 3 3 3 3 4 4 3 3 3 3 3 5 7 7 6 7 8 9 8 9 9 7 6 6 6 7 7 8 6 5 6 6 6 6 5
5 4 3 3 2 2 2 2 3 3 4 5 5 4 4 4 5 5 4 3 4 5 3 2 3 3 4 5 5 6 5 5 6 7 7 7 6 6 7 6 6 5 6
5 4 3 2 2 2 2 2 2 1 2 3 3 3 3 4 2 2 3 4 4 4 3 3 4 5 6 6 6 6 5 6 6 6 6 6 6 6 7 6 5 6 7
4 3 2 2 2 2 2 2 1 3 3 2 1 0 1 1 1 2 3 3 3 4 3 4 5 5 6 6 5 6 6 6 5 5 6 6 6 6 6 6 6 6 7
4 4 3 2 2 1 1 1 1 1 1 2 1 1 1 1 2 2 2 1 0 2 3 4 5 5 5 5 5 5 6 5 5 5 5 5 5 5 5 6 6 7 7
4 2 2 2 2 1 1 1 1 1 0 0 1 2 2 2 1 2 1 1 3 3 3 4 5 5 5 5 5 5 5 5 5 5 5 5 5 5 6 6 6 8 8
3 5 4 2 2 2 2 2 2 1 1 1 1 1 1 1 1 1 1 2 3 4 4 4 4 5 5 5 5 4 5 5 5 5 5 5 5 5 6 7 6 6 6
3 4 5 3 2 2 1 1 1 1 1 1 1 1 0 0 1 2 2 2 3 3 4 4 4 4 4 4 4 5 5 4 4 4 4 4 5 5 5 5 6 6 6
2 3 3 2 2 2 2 2 1 1 1 1 2 2 2 1 1 2 2 3 3 3 4 4 4 4 4 4 5 5 4 4 4 4 5 5 5 5 5 5 5 5 5
3 3 3 3 3 4 3 3 2 2 2 2 1 2 2 2 2 2 3 3 3 3 3 3 4 4 4 4 4 4 4 5 4 4 5 5 5 5 5 5 6 6 6
3 4 3 3 3 3 3 3 3 3 2 2 2 2 2 3 3 4 4 3 4 4 4 4 4 6 7 5 4 3 3 4 4 4 6 6 6 6 5 6 6 7 7
3 3 3 3 3 3 3 3 3 3 3 3 3 3 3 3 4 4 4 4 5 5 6 5 4 5 7 7 6 5 5 6 6 5 5 5 7 7 7 8 7 7 7
3 3 3 2 2 2 2 3 3 3 3 3 3 3 3 4 4 5 5 5 5 5 6 5 6 8 9 7 7 7 6 6 7 7 5 5 7 7 8 7 9 8 8
Wind_Direction
176 175 169 173 170 165 170 177 176 174 168 170 172 171 173 176 174 169 177 176 180 192 192 187 203 194 185 188 159 150 158 154 198 268 267 277 283 285 290 276 266 259 263
179 176 175 174 170 170 176 177 172 170 171 172 172 175 182 185 182 182 191 187 189 199 207 200 213 204 203 205 191 196 198 186 184 243 278 282 273 272 273 279 278 269 261
179 178 178 179 177 179 180 176 171 169 171 173 173 180 188 188 189 193 194 196 199 205 206 203 211 200 213 214 209 213 219 209 185 209 258 266 274 280 294 295 292 293 284
183 183 184 187 185 184 180 176 176 174 175 180 182 186 190 192 194 198 198 203 207 212 210 208 207 201 208 210 213 216 215 217 214 220 251 268 272 283 281 285 300 295 289
184 187 191 189 185 180 179 180 180 181 186 185 185 193 196 196 203 201 201 205 208 217 222 219 217 213 211 207 207 208 204 211 217 225 245 263 269 274 260 249 263 282 282
185 190 189 185 184 187 188 186 184 188 188 185 193 198 204 212 213 208 202 208 209 213 223 228 230 227 228 225 224 214 200 201 210 216 231 237 251 247 247 242 248 275 287
187 190 188 186 189 194 194 189 192 194 192 194 201 203 210 219 216 214 211 205 209 215 219 224 235 233 226 230 237 236 228 224 213 208 222 233 239 235 231 247 241 236 245
186 189 190 191 195 196 192 193 198 197 197 200 205 207 211 221 217 217 215 210 215 221 221 219 225 237 234 224 232 242 243 241 232 225 225 236 236 233 221 231 240 251 260
186 189 189 189 192 191 194 197 197 193 198 202 203 206 214 226 220 219 213 209 222 231 231 228 225 234 242 235 230 242 255 259 251 236 232 237 240 239 230 227 240 244 266
185 184 183 183 183 188 193 194 192 195 204 204 207 208 212 224 224 216 206 208 227 239 243 242 236 236 244 240 230 235 250 258 257 258 246 248 248 250 241 225 225 232 246
178 167 169 176 184 189 189 190 192 195 199 205 212 215 215 222 225 216 206 205 221 232 240 244 242 242 245 246 237 235 243 250 255 250 254 255 251 247 243 230 220 222 230
139 148 168 179 185 184 181 188 189 188 194 202 211 220 224 225 223 221 213 213 215 220 235 240 243 249 252 255 247 245 250 252 246 247 252 255 254 252 248 239 231 228 230
115 128 142 140 144 144 158 172 172 178 190 200 204 217 225 218 215 213 211 215 219 223 240 243 251 259 264 262 255 254 254 243 233 241 248 252 250 251 252 251 249 241 242
111 115 118 119 120 126 140 151 161 177 191 199 204 215 224 226 227 217 213 218 225 232 248 259 264 266 260 256 261 259 241 232 231 242 250 254 255 252 251 246 251 253 255
81 83 91 104 121 127 131 154 176 205 201 200 209 203 202 224 235 222 213 216 215 222 224 244 254 260 262 261 259 257 252 246 243 246 251 257 257 255 258 250 242 242 242
74 67 67 73 86 97 96 55 9 286 251 219 216 207 213 213 217 218 235 252 248 223 193 235 245 247 252 255 258 262 256 251 248 245 247 248 251 252 259 257 243 240 246
72 65 58 58 65 71 82 95 5 348 18 27 21 49 206 214 189 205 227 243 240 190 207 244 251 253 255 255 254 256 259 258 252 247 248 248 248 250 250 255 252 246 248
62 57 61 64 64 72 91 122 161 192 315 328 329 285 258 251 250 244 208 141 233 204 230 248 256 258 258 258 258 257 258 261 258 255 253 254 251 249 249 250 248 246 250
52 46 47 54 53 58 60 66 68 74 93 282 328 330 287 247 250 264 201 222 252 256 252 253 257 262 264 264 263 261 260 260 261 259 257 255 254 250 252 251 251 255 254
29 33 49 53 49 47 45 54 52 50 41 17 335 301 313 39 0 308 255 250 257 264 265 265 266 267 267 267 267 267 266 264 263 260 260 260 259 255 258 258 255 257 255
18 21 33 41 40 41 43 45 44 49 22 357 309 312 29 134 269 278 275 267 262 265 271 271 270 273 272 271 269 267 268 270 269 269 270 269 270 268 262 259 258 257 260
27 28 28 30 28 30 25 20 17 20 9 360 334 341 2 12 318 299 290 283 272 265 266 268 272 272 271 273 275 271 267 271 276 278 275 274 272 270 269 267 267 263 262
37 38 36 31 32 30 29 21 19 18 15 9 353 346 349 339 314 302 292 286 281 281 284 281 281 284 283 278 274 269 269 270 269 271 275 278 278 277 274 270 270 273 268
38 37 37 32 31 31 24 13 6 3 359 350 343 338 332 324 316 311 307 304 303 302 302 302 296 294 296 296 288 282 277 281 286 281 277 276 276 274 273 273 272 271 269
38 36 34 28 23 18 13 6 3 2 358 355 351 346 341 336 330 323 319 315 313 312 311 309 302 302 303 301 298 296 294 288 282 280 277 273 274 276 276 274 273 271 268
32 32 33 33 29 18 12 6 0 358 353 354 348 339 338 337 329 323 321 319 317 314 311 307 305 307 308 303 302 305 298 289 284 278 274 272 272 272 273 272 274 273 272